Theta_e
309 309 309 310 309 309 308 307 306 305 307 305 304 307 307 303 302 302 300 304 297 293 293 295 296 293 295 295 292 297 296 296 294 290 289 292 289 291 290 292 290 289 287 286 288 285 283 300 300 292 298 302 301 303
309 308 308 308 309 309 308 306 305 305 306 305 303 306 307 304 302 303 296 303 302 294 292 297 297 300 299 300 297 297 295 294 295 293 292 293 289 293 291 286 295 289 292 291 292 292 301 303 301 302 303 300 301 301
309 309 308 308 308 308 308 306 305 304 305 304 304 305 306 305 302 302 299 302 298 292 293 295 296 303 305 304 305 294 297 300 297 301 294 293 289 294 288 291 292 295 297 293 293 298 297 300 301 302 303 302 303 303
308 308 308 308 308 308 308 307 305 304 305 304 304 305 305 306 302 302 298 302 299 293 287 294 302 298 304 305 304 304 302 301 300 299 294 292 290 296 292 293 292 295 296 291 293 296 296 296 297 299 299 301 301 303
307 308 308 308 308 308 308 307 305 305 305 304 304 304 305 305 301 302 301 301 302 293 289 291 300 302 304 304 303 302 300 298 294 292 292 291 295 295 296 296 293 295 290 288 286 292 290 290 293 296 296 298 300 299
307 307 307 308 308 308 308 307 306 305 304 304 303 304 305 303 301 297 293 301 302 299 291 288 301 300 303 303 302 301 300 297 295 291 293 295 299 297 292 290 294 296 296 295 289 291 291 293 297 300 298 293 294 294
306 307 307 308 308 308 308 308 307 306 304 304 303 304 304 301 300 293 294 298 302 301 291 288 293 299 302 302 301 302 300 296 293 291 293 294 296 295 289 288 295 295 293 293 294 294 291 295 295 298 294 295 295 294
306 306 307 307 307 307 307 308 307 305 304 303 302 303 301 300 298 294 299 300 302 296 293 287 290 295 301 296 295 303 296 295 294 294 296 294 293 295 291 293 294 291 291 293 293 293 294 297 297 295 294 294 291 290
306 306 306 306 307 307 307 308 306 304 303 302 303 301 298 295 292 297 302 302 302 296 288 289 288 290 300 296 297 297 300 292 295 290 292 293 294 290 292 290 291 291 290 290 292 296 296 295 293 293 292 290 289 289
305 306 306 306 306 307 307 306 305 304 302 302 299 295 290 296 304 303 297 292 291 292 293 290 295 292 297 294 293 294 297 295 289 291 294 292 292 294 295 295 293 292 291 292 291 292 294 293 291 291 290 290 289 289
305 305 306 306 307 307 306 305 304 302 301 296 293 292 296 300 299 294 291 288 288 287 291 294 296 292 300 291 292 297 296 296 289 289 289 291 288 293 297 295 293 293 293 293 295 295 296 296 293 291 290 290 290 289
305 306 306 306 306 307 305 304 302 299 296 296 296 298 296 293 292 288 287 291 289 288 295 294 295 295 296 301 295 296 291 292 286 296 290 288 292 295 296 296 295 293 292 293 296 295 296 296 295 292 290 290 290 290
305 305 306 306 306 305 303 302 301 299 298 298 295 291 291 290 284 283 283 287 289 293 296 295 293 295 296 297 293 292 288 290 298 291 289 289 294 294 295 295 294 294 294 294 295 296 298 297 297 293 292 291 290 289
305 305 305 306 305 304 303 301 299 299 297 292 289 284 285 285 288 290 291 293 296 296 295 296 295 294 295 292 294 288 293 292 286 286 287 292 293 293 293 294 294 293 293 293 294 295 297 297 296 294 293 292 289 289
304 305 305 306 304 303 302 300 300 299 295 290 290 285 287 293 294 296 297 296 297 299 296 295 296 295 293 288 292 289 286 284 286 286 289 291 292 293 292 293 294 294 293 292 294 295 297 297 297 295 294 293 290 290
305 305 304 304 303 302 301 299 296 296 293 290 291 289 292 291 292 293 294 294 298 298 299 296 293 289 287 290 285 283 284 283 287 290 292 292 292 292 292 293 295 295 293 292 293 295 297 298 298 298 296 294 292 290
304 300 303 302 302 301 298 294 293 291 291 290 290 294 293 293 293 294 295 297 301 296 292 295 287 287 294 288 282 291 285 288 292 294 296 292 292 292 292 293 295 294 293 292 292 295 298 299 300 299 296 295 293 290
300 302 302 300 297 296 294 295 292 290 288 292 290 292 294 296 296 296 299 300 297 296 296 292 295 289 287 278 290 293 294 297 298 295 294 292 294 294 293 293 296 294 292 292 292 296 297 298 298 298 298 298 295 291
300 299 299 298 297 295 291 292 294 288 291 293 293 295 296 297 300 300 300 301 302 301 298 294 289 291 292 295 294 294 296 296 295 296 295 294 294 293 293 294 295 294 292 290 291 293 296 297 299 301 298 297 294 291
300 299 299 298 298 294 290 291 297 292 290 292 295 294 296 296 298 298 298 298 297 296 292 291 293 295 295 295 297 297 295 297 297 296 294 294 294 293 293 295 294 294 293 290 289 289 293 296 299 300 299 296 294 291
297 296 297 297 295 295 294 292 291 294 295 293 295 295 295 298 296 296 296 298 294 294 293 296 295 295 297 297 296 297 295 297 295 295 294 293 295 295 295 296 296 295 293 291 288 289 290 293 295 300 300 299 297 292
294 296 294 295 293 293 293 296 294 296 295 296 294 296 294 292 293 295 297 293 294 296 298 296 295 295 294 294 293 294 295 297 297 295 288 294 294 294 295 296 295 291 291 291 290 289 290 291 294 297 301 299 298 294
297 296 294 294 291 291 289 297 290 292 290 291 294 291 292 293 295 298 293 295 296 298 297 297 297 297 296 294 293 293 293 294 295 294 293 294 295 294 294 295 295 291 289 290 291 291 290 289 292 295 301 300 299 296
297 294 291 290 291 288 292 289 293 291 293 291 290 288 291 294 297 293 290 293 295 296 296 297 297 296 295 294 293 293 294 296 296 296 294 293 293 293 294 294 295 294 293 291 291 291 291 290 289 294 298 299 298 296
288 288 289 286 291 288 287 287 288 289 287 290 289 290 292 295 290 289 289 294 295 294 296 297 297 296 294 294 294 293 295 295 293 293 293 294 293 293 293 294 295 294 294 292 289 290 290 291 290 290 294 298 297 297
285 288 287 288 288 288 288 286 287 288 289 289 290 293 294 291 287 286 293 296 296 296 297 297 296 296 295 296 294 294 293 295 296 295 292 292 292 291 290 290 290 291 292 293 290 288 289 290 290 289 290 293 292 296
283 285 291 295 293 292 290 292 292 290 288 287 290 291 289 285 285 292 299 299 298 298 299 299 298 297 296 295 294 295 295 295 293 293 293 293 292 292 291 289 289 289 292 293 293 291 289 289 291 291 289 292 295 299
289 290 287 290 290 293 288 289 288 288 290 294 293 288 286 287 289 295 297 300 300 299 299 299 299 298 295 294 294 294 294 296 294 294 294 294 293 292 292 292 292 284 291 293 292 293 293 292 292 292 291 289 290 296
288 293 292 288 289 290 290 290 290 293 296 294 291 290 290 290 292 296 297 298 299 298 296 295 295 294 293 293 294 294 294 294 290 288 288 289 290 290 291 291 291 292 292 293 287 287 291 291 292 293 293 291 289 291
288 292 289 288 287 287 291 295 294 296 297 296 295 292 291 291 295 299 297 297 296 295 296 295 293 292 291 291 290 291 292 292 291 290 288 286 287 289 290 290 290 290 291 292 292 293 287 291 292 295 293 293 291 288
292 291 289 289 288 292 294 296 296 295 295 295 296 293 289 290 293 296 296 297 297 296 295 293 293 293 292 292 291 290 288 291 289 288 287 289 290 290 289 289 290 290 291 291 291 291 291 291 291 291 291 290 289 289
290 288 288 286 288 293 294 293 292 291 291 291 291 292 291 290 286 291 295 295 295 293 290 292 293 292 294 294 293 291 287 290 289 287 285 286 286 286 287 288 288 289 289 290 290 290 289 288 287 287 287 287 287 288
289 289 290 288 288 288 290 289 288 288 289 289 289 289 289 288 284 288 295 296 295 294 293 294 294 294 293 292 290 289 288 287 282 280 280 279 279 281 285 286 286 287 288 288 288 288 287 284 283 283 284 284 285 286
Wind_Speed
15 16 17 18 19 19 19 18 16 14 13 12 10 11 8 6 3 3 4 3 5 6 11 8 13 12 10 8 8 10 7 3 5 3 4 4 5 5 6 9 5 5 4 3 7 6 7 11 12 9 15 19 21 22
15 15 16 17 18 19 19 19 18 16 14 13 13 13 10 10 7 4 2 3 3 5 8 15 20 20 18 14 9 5 8 7 4 4 4 5 5 4 7 5 6 3 3 5 5 8 18 18 18 15 16 17 19 21
16 15 15 16 17 18 18 20 20 18 16 15 14 13 12 12 10 8 2 2 3 5 9 8 7 9 9 11 9 5 2 6 5 7 5 4 5 4 5 4 9 6 7 6 13 4 16 17 21 19 24 25 26 25
15 15 15 16 16 17 18 21 21 19 17 16 15 14 9 12 11 8 3 3 4 3 5 2 5 4 7 7 10 11 10 4 6 6 4 4 4 4 5 8 11 7 10 12 17 16 24 19 21 23 26 29 29 30
15 16 15 15 16 16 18 21 22 20 19 17 14 14 11 13 10 4 2 4 8 3 4 9 18 15 12 8 10 9 7 7 4 3 4 4 5 5 5 7 2 4 3 3 7 18 15 17 22 29 28 27 24 25
15 15 15 16 16 16 16 19 21 20 19 17 14 14 13 14 9 2 4 9 9 5 3 5 7 7 10 8 8 9 6 4 2 3 5 4 5 3 4 3 5 8 12 13 7 14 20 22 25 25 22 23 23 24
16 16 16 15 15 15 15 17 20 21 19 16 13 13 10 15 5 3 3 3 7 5 3 5 5 6 10 7 6 5 6 3 3 3 5 5 2 0 2 4 16 17 17 18 16 14 21 19 23 23 21 24 24 20
15 16 17 16 15 15 15 15 19 20 17 14 10 8 13 9 1 3 7 9 6 2 3 4 6 8 8 5 7 6 6 5 5 3 2 3 1 6 5 8 16 16 19 16 16 20 21 20 19 20 19 19 18 15
16 17 16 16 15 15 14 14 19 19 17 11 14 14 4 2 3 2 3 13 6 3 3 3 4 0 6 8 4 5 7 5 4 4 3 2 4 2 7 11 13 14 13 17 21 22 21 20 21 17 17 17 16 16
17 16 16 15 15 14 12 17 22 21 15 19 6 4 3 3 9 13 4 5 3 3 5 6 7 8 2 4 4 4 5 4 4 2 2 4 2 2 4 5 7 12 15 17 18 21 25 19 20 21 18 17 16 16
16 16 16 15 14 13 16 23 24 24 17 3 4 3 2 2 4 3 4 5 4 4 5 6 9 5 2 3 4 2 2 0 3 3 2 4 3 5 9 8 9 12 15 17 17 18 19 16 19 20 18 15 14 15
15 15 14 13 13 12 26 27 29 8 4 5 5 4 1 2 3 4 5 4 6 5 7 7 3 4 2 2 2 2 3 4 2 5 3 2 3 9 11 13 14 13 15 18 18 20 20 17 17 18 16 15 15 14
14 13 12 11 10 25 28 29 18 21 13 5 3 4 3 4 7 6 7 5 4 5 5 5 4 3 4 4 3 3 4 2 3 4 1 2 6 10 12 12 14 15 18 19 19 19 21 18 15 17 16 14 16 13
12 11 10 10 23 28 30 26 27 15 2 3 5 6 5 6 6 5 8 5 4 3 6 4 3 2 2 1 2 3 1 1 3 3 3 4 9 12 12 12 13 17 16 19 19 19 19 17 13 17 16 14 15 14
10 9 10 18 28 29 28 29 18 2 3 4 4 5 8 5 6 9 8 3 2 3 3 3 2 4 1 2 3 3 3 2 2 3 4 7 10 10 12 13 14 15 13 15 17 17 18 16 11 11 15 12 12 12
9 8 6 26 28 29 29 16 4 0 2 2 5 4 3 6 8 5 5 4 4 3 2 4 4 3 3 2 3 4 3 2 2 2 4 6 8 10 11 13 13 14 13 13 14 16 17 17 12 13 13 14 12 14
10 0 26 29 29 27 19 5 2 5 4 4 5 6 7 7 6 6 4 4 2 4 5 0 3 3 2 3 0 1 2 2 3 4 2 6 9 10 11 12 12 13 13 14 14 16 16 15 14 13 14 16 12 14
3 18 33 33 21 11 2 2 3 5 6 7 3 6 9 8 4 5 2 3 4 3 1 1 2 5 4 1 1 3 3 1 1 5 4 5 8 10 10 12 11 12 13 14 14 15 15 17 14 12 15 16 13 12
19 21 32 27 10 5 4 4 3 4 6 4 6 5 7 5 5 5 3 2 1 2 1 3 1 2 2 1 3 4 3 2 4 4 3 4 7 9 9 10 9 11 13 14 14 12 11 15 13 12 10 11 11 10
31 29 24 12 1 3 4 3 4 4 4 5 6 8 6 6 5 4 3 4 4 3 4 3 1 1 2 5 2 3 4 3 3 3 5 5 5 7 8 8 7 10 8 10 10 12 12 11 12 12 10 10 11 10
18 11 10 3 2 1 2 4 4 4 3 5 6 7 4 4 5 5 4 3 5 2 3 2 3 6 6 4 5 2 6 4 5 3 4 4 4 3 4 5 7 8 8 9 9 11 13 12 13 14 12 11 11 11
5 9 3 1 1 3 3 4 3 3 3 2 7 7 6 7 6 5 5 6 2 2 1 4 5 6 6 6 5 5 5 1 2 5 3 2 6 7 7 7 8 8 9 9 9 9 9 11 12 14 11 10 10 10
10 2 3 3 3 3 2 4 4 5 5 5 7 6 5 5 3 6 4 3 3 3 4 6 8 7 7 7 6 6 4 3 3 5 4 5 5 6 6 7 8 8 8 9 9 8 9 10 12 14 13 10 10 11
3 3 5 5 4 3 5 5 4 4 3 5 7 7 6 4 4 4 5 6 5 6 7 9 8 7 7 7 5 4 4 2 1 3 5 5 6 6 6 6 7 7 7 7 8 9 9 9 12 12 15 12 11 11
4 5 4 4 5 5 6 7 6 5 5 6 8 6 4 5 6 5 6 5 8 8 8 9 8 8 7 6 5 5 1 3 4 3 5 5 6 5 6 6 7 9 9 8 10 11 11 9 10 12 13 12 14 12
4 5 6 8 5 6 6 6 7 8 5 7 6 4 4 4 5 5 4 5 7 8 8 8 8 7 6 6 5 4 5 3 2 1 5 5 6 6 7 7 7 8 10 8 9 11 12 13 11 13 13 15 14 6
4 5 4 4 3 3 3 3 4 4 6 6 5 6 5 5 7 2 2 3 4 6 7 6 6 5 5 7 5 4 3 3 4 4 4 4 5 5 6 7 8 9 9 9 9 9 11 12 12 11 9 12 12 12
3 4 6 6 3 2 4 4 6 8 6 3 6 6 6 4 4 2 3 3 6 8 6 5 5 6 6 6 5 4 4 2 4 3 4 4 5 5 8 6 7 4 6 7 8 9 9 11 11 11 10 7 9 12
4 3 3 7 4 5 5 5 4 4 1 4 6 2 4 4 1 2 4 6 8 8 8 8 8 8 7 6 5 6 5 5 5 5 5 4 5 7 8 7 7 8 7 9 5 3 8 10 11 9 9 7 5 10
4 4 4 7 5 5 3 1 2 4 4 5 5 6 7 5 2 3 6 7 7 7 7 9 8 8 7 7 7 6 5 5 4 4 3 3 3 5 6 7 7 8 8 9 10 10 3 10 9 7 7 8 6 7
6 5 4 4 4 2 2 4 4 5 4 3 2 7 7 4 4 3 3 5 6 7 8 9 8 7 6 6 6 6 7 5 5 7 6 4 3 4 5 6 7 7 8 9 9 9 11 11 11 12 12 12 11 8
5 6 4 5 3 4 4 2 1 2 4 4 5 6 7 6 4 3 3 2 5 6 5 6 7 6 5 6 7 6 8 6 6 6 8 6 6 7 7 6 7 8 9 10 9 10 12 13 11 12 12 13 13 11
4 4 3 3 4 6 4 4 3 3 2 2 3 4 4 3 4 2 0 4 2 3 6 4 6 6 8 7 8 6 6 8 9 7 5 5 6 7 7 7 8 9 10 9 10 10 12 14 12 13 13 13 13 13
Wind_Direction
264 261 258 254 247 239 230 220 218 233 242 235 249 264 223 195 215 246 315 189 269 272 290 270 287 280 282 252 282 358 298 218 275 278 302 341 319 335 308 296 282 195 253 200 243 251 262 3 330 340 324 313 313 311
265 261 257 254 251 245 233 222 214 222 228 225 240 257 238 193 203 208 262 198 242 253 279 310 279 266 265 275 300 305 312 331 329 336 329 318 316 301 328 305 329 329 276 295 285 293 319 358 340 333 308 303 306 305
266 265 262 258 252 246 235 222 215 219 228 225 232 244 255 196 196 200 245 301 244 264 281 246 247 208 220 230 238 267 25 356 359 346 307 300 284 318 291 281 318 323 342 298 321 325 317 341 322 325 323 314 306 301
265 265 263 262 258 247 235 220 219 221 223 220 225 241 249 200 191 208 208 228 238 318 280 288 161 205 199 206 211 229 269 316 319 298 292 278 279 306 296 312 301 349 315 344 295 294 329 308 320 310 307 302 299 293
266 266 265 263 259 253 239 224 221 220 211 214 220 241 244 194 184 218 251 248 239 230 305 300 298 255 244 214 221 232 251 267 278 279 244 251 272 294 274 269 15 7 343 294 291 314 293 292 294 295 291 290 316 322
261 263 265 263 260 256 248 229 219 214 206 208 215 238 255 166 155 143 259 200 201 153 274 283 6 205 188 200 217 217 223 236 193 240 269 268 295 284 294 276 135 338 345 344 302 298 286 284 287 292 326 330 312 303
266 265 264 265 264 258 249 235 215 208 197 198 210 239 178 159 162 180 308 15 147 163 248 273 266 192 205 222 198 151 144 184 194 229 239 260 359 226 274 286 351 355 334 318 313 315 310 302 306 316 324 314 312 312
262 264 263 261 260 255 247 238 210 189 186 180 213 195 146 152 90 263 235 185 182 210 242 267 273 219 191 241 224 139 162 182 197 254 267 276 243 208 230 332 350 333 319 308 315 306 288 302 320 321 321 315 316 315
261 261 262 261 257 251 244 224 181 172 159 176 145 132 126 184 212 232 129 167 203 271 262 222 261 324 200 251 232 229 163 214 129 218 222 225 236 153 349 326 313 320 321 308 309 310 317 325 328 320 321 324 320 315
260 261 261 259 254 245 236 178 161 152 157 138 144 182 209 193 127 118 128 160 192 223 231 252 251 263 345 308 278 196 196 204 196 160 116 232 98 45 348 334 330 326 315 316 317 326 329 329 334 331 327 319 317 322
256 258 258 256 251 237 180 153 146 135 128 179 169 193 72 309 195 212 201 199 179 221 211 236 249 292 155 285 273 276 293 175 279 122 240 218 137 345 351 9 349 328 336 327 320 323 320 335 333 331 331 332 330 325
255 255 255 252 237 205 154 146 141 131 148 138 111 89 143 188 211 223 213 205 199 239 180 224 171 222 85 345 263 251 250 184 268 159 228 185 69 357 352 350 351 345 334 331 332 326 323 348 342 339 330 332 333 333
250 251 250 239 222 156 146 145 133 122 124 128 169 158 198 164 217 218 203 196 218 191 166 174 179 190 146 239 255 260 252 250 301 220 92 56 5 354 354 342 341 337 341 335 333 331 327 348 344 345 343 345 340 340
248 248 242 218 161 150 147 141 140 135 124 171 163 174 223 183 232 205 236 245 95 149 159 198 151 155 195 196 268 259 302 307 265 238 100 59 0 345 342 338 340 335 342 337 333 330 337 345 354 354 350 351 346 347
239 233 205 168 152 148 143 143 141 125 183 177 199 209 211 240 249 225 235 110 151 119 155 173 137 111 137 259 250 271 272 226 268 8 23 349 333 334 338 335 340 339 342 340 331 329 331 339 346 359 355 356 351 349
216 182 166 149 145 138 140 122 66 318 193 234 230 226 222 221 243 202 202 151 158 185 150 260 168 134 207 198 232 233 240 239 48 11 335 322 335 331 338 335 339 342 347 336 329 327 332 327 355 356 0 359 3 0
151 247 143 134 131 128 111 93 149 200 214 224 216 215 264 247 213 193 193 121 138 230 221 24 229 152 178 223 203 136 243 26 321 307 20 358 326 332 340 328 342 346 341 341 334 329 335 338 345 357 5 1 7 5
102 135 129 123 116 100 79 153 187 190 221 226 208 203 229 265 201 119 127 128 222 216 192 207 40 205 203 233 135 166 175 241 307 27 30 339 335 342 341 334 352 352 346 343 337 336 341 347 349 352 10 10 7 12
136 132 129 126 126 121 145 173 234 226 224 139 228 243 211 201 40 75 102 136 311 357 238 216 232 255 141 279 87 114 145 30 6 48 63 55 355 344 338 324 3 356 354 350 345 340 338 343 351 352 14 17 12 10
129 128 123 118 270 123 140 167 212 253 198 205 222 206 198 177 149 149 145 170 181 200 192 213 357 131 104 95 97 65 42 346 345 7 51 26 359 332 343 351 3 353 349 348 350 347 338 349 352 349 3 34 19 12
102 100 95 51 67 321 191 173 198 215 212 202 199 188 160 150 182 179 157 173 214 249 144 189 128 82 78 110 67 38 81 13 42 50 24 353 335 342 351 25 14 7 356 360 350 349 353 348 341 336 353 34 37 26
92 97 96 290 177 206 220 208 215 164 219 219 179 200 167 192 187 186 134 211 225 122 151 136 127 135 145 128 96 34 60 22 60 112 234 237 2 15 8 32 24 10 0 1 351 348 343 344 334 325 346 20 41 50
95 108 131 177 198 181 243 154 180 195 206 185 190 207 184 187 133 118 222 189 145 165 165 138 139 174 122 117 130 110 63 325 48 44 26 0 16 22 7 17 53 26 1 358 349 350 346 341 341 331 334 27 32 35
169 147 178 181 195 177 163 184 199 198 223 196 198 204 171 127 128 231 231 163 132 156 159 149 166 139 153 173 165 111 79 348 1 83 35 352 11 17 12 17 31 53 32 3 352 354 2 357 348 348 338 11 34 39
157 173 190 191 216 182 186 169 183 190 190 206 195 169 144 156 195 223 228 166 153 180 157 177 173 174 175 165 126 122 89 353 20 7 55 9 5 2 18 12 32 51 15 17 359 351 355 2 3 353 342 359 3 40
188 170 200 197 172 199 177 164 194 194 183 195 203 140 135 185 211 222 212 160 153 176 166 183 183 179 173 139 142 122 80 19 332 17 58 14 29 13 10 4 2 25 7 7 5 351 349 350 358 3 350 341 326 32
170 201 194 240 206 213 149 165 156 189 201 205 161 165 171 172 208 113 94 66 144 147 163 184 172 170 138 107 97 101 68 64 33 23 40 29 46 32 15 6 1 12 336 3 360 354 348 346 344 357 356 340 333 345
253 221 180 182 178 144 168 197 196 195 218 193 156 189 182 209 85 49 74 141 142 146 154 133 134 118 121 127 127 111 87 100 138 197 200 183 111 60 15 2 12 267 313 2 349 344 355 344 339 347 357 349 331 326
214 200 146 165 151 200 220 222 220 203 341 188 189 156 90 70 346 188 150 145 149 152 148 141 121 110 121 126 111 95 61 14 76 56 28 13 16 34 4 349 349 350 353 342 329 280 353 334 323 337 355 358 343 317
172 167 192 189 200 214 209 232 49 56 48 58 95 111 95 107 140 190 143 147 155 153 140 127 147 165 152 151 127 107 101 97 79 58 52 31 348 337 337 339 344 348 350 343 341 345 359 334 351 360 355 357 8 350
143 181 220 192 219 211 136 101 109 98 73 70 105 123 120 117 87 39 145 164 154 145 150 161 167 159 165 160 148 163 132 107 86 71 13 343 30 38 353 337 348 346 342 341 341 348 356 349 355 349 350 351 350 348
166 190 194 185 157 139 109 144 127 113 139 133 122 130 150 132 105 140 340 279 167 169 141 178 157 144 137 94 77 70 49 82 67 45 27 12 12 4 345 350 359 349 342 339 347 351 357 358 349 348 342 340 333 326
172 176 182 136 160 162 143 123 155 134 130 103 79 81 50 81 99 86 191 322 310 154 161 137 118 113 105 108 98 103 87 86 88 86 81 41 10 347 324 5 359 348 345 354 355 355 359 353 343 341 337 333 328 317